Regional Weather Roundup
Issued by NWS

Home | Current Version | Previous Version | Text Only | Print | Product List | Glossary Off
Versions: 1 2 3 4 5 6 7 8 9 10 11 12 13 14 15 16 17 18 19 20 21 22 23 24 25 26 27 28 29 30 31 32 33 34 35 36 37 38 39 40 41 42 43 44 45 46 47 48 49 50

000
ASUS43 KDTX 191101
RWRMI
MICHIGAN HOURLY REGIONAL WEATHER ROUNDUP
NATIONAL WEATHER SERVICE DETROIT/PONTIAC MI
700 AM EDT SAT APR 19 2014

NOTE: "FAIR" INDICATES FEW OR NO CLOUDS BELOW 12,000 FEET WITH NO
SIGNIFICANT WEATHER AND/OR OBSTRUCTION TO VISIBILITY.

MIZ047>049-052>055-059>063-066>070-074>076-081>083-191200-
SOUTHEAST LOWER MICHIGAN

CITY           SKY/WX    TMP DP  RH WIND       PRES   REMARKS
ADRIAN         CLEAR     34  27  75 NE9       30.41R WCI  27
ALMA           CLEAR     28  26  89 N3        30.46R
ANN ARBOR      CLEAR     32  26  78 NE5       30.41R WCI  27
BAD AXE        CLEAR     29  28  94 N5        30.47R FOG     WCI  24
CARO           CLEAR     28  27  96 CALM      30.46R
DETROIT CITY   CLEAR     34  27  75 N5        30.43R WCI  30
DETROIT        PTCLDY    35  28  75 N9        30.42R WCI  28
FLINT          CLEAR     33  27  78 NE8       30.44R WCI  26
GROSSE ILE     MOCLDY    36  30  80 N10       30.41R WCI  28
HILLSDALE      CLEAR     34  30  83 E10       30.39R WCI  26
HOWELL         CLEAR     31  28  87 NE3       30.42R

CITY           SKY/WX    TMP DP  RH WIND       PRES   REMARKS
JACKSON        CLEAR     31  26  82 NE5       30.41R WCI  26
LAMBERTVILLE   CLEAR     36  30  80 CALM      30.41R
LANSING        CLEAR     30  27  88 NE5       30.43R WCI  25
LAPEER         FAIR      29  28  97 N5        30.44S WCI  23
MASON          CLEAR     31  28  90 NE5       30.42R WCI  26
MONROE         CLEAR     36  28  75 NE6       30.40R WCI  31
MT. CLEMENS    CLEAR     30  27  88 N8        30.42R WCI  23
PONTIAC        CLEAR     32  26  78 NE6       30.41R WCI  26
PORT HOPE        N/A     35  32  88 N12       30.46R WCI  27
PORT HURON     CLEAR     32  30  93 N5        30.44R WCI  27
TRI CITIES     CLEAR     31  25  78 N7        30.47R WCI  24
TROY           CLEAR     32  28  86 NE3       30.44R
SAGINAW HB     CLEAR     32  30  93 CALM      30.47R
YPSILANTI      CLEAR     34  27  75 NE8       30.42R WCI  27
$$
MIZ043>046-050>051-056>058-064>065-071>073-077>080-191200-
SOUTHWEST LOWER MICHIGAN

CITY           SKY/WX    TMP DP  RH WIND       PRES   REMARKS
BATTLE CREEK   CLEAR     34  28  79 E12       30.41R WCI  25
BENTON HARBOR  CLEAR     34  29  82 E8        30.38R WCI  27
BIG RAPIDS     CLEAR     28  27  95 CALM      30.44R
COLDWATER      CLEAR     36  30  80 E9G22     30.39R WCI  29
FREMONT        FAIR      31  26  84 E7        30.43S WCI  24
HOLLAND        CLEAR     35  28  75 NE8       30.42R WCI  29
GRAND RAPIDS   PTCLDY    33  27  78 E8        30.43R WCI  26
IONIA          FAIR      30  28  91 NE3       30.43R
KALAMAZOO      CLEAR     36  29  75 E8        30.40R WCI  30
LUDINGTON      CLEAR     27  25  94 CALM      30.46R
MARSHALL       CLEAR     32  27  82 E7        30.41R WCI  26
MOUNT PLEASANT CLEAR     29  27  90 N5        30.46R WCI  24
MUSKEGON       CLEAR     32  24  72 E8        30.44R WCI  25
SOUTH HAVEN    CLEAR     34  30  84 E6        30.39R WCI  29
$$
MIZ016>042-191200-
NORTHERN LOWER MICHIGAN

CITY           SKY/WX    TMP DP  RH WIND       PRES   REMARKS
ALPENA         CLEAR     26  25  96 CALM      30.49R
BEAVER ISLAND  PTCLDY    28  27  97 E3        30.48R
BELLAIRE       CLEAR     24  22  94 CALM      30.47S
CADILLAC       CLEAR     24  22  93 CALM      30.42R
CHARLEVOIX     CLEAR     28  27  98 CALM      30.51R
FRANKFORT      PTCLDY    30  27  88 E9        30.46S WCI  21
GAYLORD        CLOUDY    27  27 100 NE6       30.44S FOG     WCI  20
GRAYLING       FOG       26  26 100 NE6       30.46R VSB 1/2 WCI  19
HARBOR SPRINGS MOCLDY    29  28  97 E7        30.48R WCI  22
HOUGHTON LAKE  PTCLDY    27  24  89 E10       30.45R WCI  17
MANISTEE       CLEAR     28  25  86 E3        30.46R
OSCODA         CLEAR     29  27  95 N6        30.47S WCI  22
PELLSTON       FOG       28  27  96 CALM      30.50R VSB 1/2
ROGERS CITY    FOG       25  25  99 CALM      30.51R VSB 1/4
TRAVERSE CITY  PTCLDY    25  21  85 CALM      30.47R
$$
MIZ007>008-015-191200-
EASTERN UPPER MICHIGAN

CITY           SKY/WX    TMP DP  RH WIND       PRES   REMARKS
KINROSS        CLOUDY    27  25  93 CALM      30.49R VSB<1/4
MACKINAC ISLAN FOG       27  27 100 NE5       30.49R VSB 1/4 WCI  22
NEWBERRY       FOG       21  20  96 CALM      30.48R VSB 1/4
S. S. MARIE    PTCLDY    25  22  88 CALM      30.49R
MUNISING         N/A     25  21  85 CALM      30.47R
$$
MIZ004>006-011>014-085-191200-
CENTRAL UPPER MICHIGAN

CITY           SKY/WX    TMP DP  RH WIND       PRES   REMARKS
MANISTIQUE     PTCLDY    26  25  96 CALM      30.48R
ESCANABA       CLOUDY    28  25  86 CALM      30.47R
MENOMINEE      MOCLDY    28  25  86 NE5       30.45F WCI  23
SAWYER-GWINN   MOCLDY    23  21  93 CALM      30.43S
$$
MIZ001>003-009>011-084-191200-
WESTERN UPPER MICHIGAN

CITY           SKY/WX    TMP DP  RH WIND       PRES   REMARKS
IRON MOUNTAIN  CLOUDY    28  24  85 SE3       30.42S
HOUGHTON       CLOUDY    29  25  85 E10       30.39F WCI  20
COPPER HARBOR    N/A     31  26  82 S5        30.43F WCI  26
IRONWOOD       CLOUDY    34  23  64 SE9G18    30.26F WCI  26
$$

ABBREVIATIONS USED IN REMARKS
   TC - TEMPERATURE IN CELSIUS
  WCI - WIND CHILL INDEX
   HX - HEAT INDEX
  VSB - VISIBILITY




USA.gov is the U.S. government's official web portal to all federal, state and local government web resources and services.